User: anonymous   Login
Location: Innsbruck
(47.2657°N, 11.3914°E)
Time: 19:59:18
(UTC+01:00)
Language:

XW-2A - Orbit

View from above orbital plane
View from above orbital plane
View from above satellite
View from above satellite

Ground track
Ground track

The orbit data is extracted from the following two-line orbital elements,

1 40903U 15049E   21341.50061130  .00006721  00000-0  13363-3 0  9997
2 40903  97.2139  35.4123 0013397 100.9005   5.8684 15.47191054349537
Epoch (UTC): 07 December 2021 12:00:52
Eccentricity: 0.0013397
inclination: 97.2139°
perigee height: 416 km
apogee height: 434 km
right ascension of ascending node: 35.4123°
argument of perigee: 100.9005°
revolutions per day: 15.47191054
mean anomaly at epoch: 5.8684°
orbit number at epoch: 34953

The dashed part of the orbit path shows where the satellite is in the earth's shadow,  

DLR